Flag for Canada Weather past 2 weeks in Dieppe, New Brunswick, Canada

Now
61 °F

Sunny.


Feels Like: 61 °F
Forecast: 59 / 83 °F
Wind: 9 mph from Southwest

Location: Moncton

Current Time: Jul 26, 2014 at 8:36:17 AM

Latest Report: Jul 26, 2014 at 8:00 AM


Visibility: 15 mi

Pressure: 29.87 "Hg

Humidity: 88%

Dew point: 57 °F

Location of DieppeLocation

Historic Weather in Dieppe — Graph

°F

Dieppe temperature yesterday

Maximum temperature yesterday: 75 °F (at 4:00 PM)
Minimum temperature yesterday: 57 °F (at 6:00 AM)
Average temperature yesterday: 65 °F

Past Weeks' High & Low Weather Summary

 TemperatureHumidityPressure
High86 °F (Jul 23, 2:00 PM)100% (Jul 18, 2:00 AM)30.26 "Hg (Jul 18, 2:00 AM)
Low54 °F (Jul 12, 5:00 AM)37% (Jul 12, 2:00 PM)29.66 "Hg (Jul 23, 6:00 PM)
Average69 °F75%29.97 "Hg
* Reported Jul 11 7:00 AM — Jul 26 7:00 AM, Dieppe, Weather by CustomWeather, © 2014

Note: Actual official high and low records may vary slightly from our data, if they occured in-between our weather recording intervals... More about our weather records

Advertising

Dieppe weather history for previous 24 hours

 ConditionsComfort  
Time TempWeatherWind HumidityBarometerVisibility
7:00 AM
Jul 26
59 °FSunny.6 mph88%29.85 "Hg15 mi
6:00 AM57 °FClear.8 mph88%29.85 "Hg15 mi
5:00 AM57 °FPassing clouds.10 mph94%29.84 "Hg15 mi
4:00 AM57 °FPassing clouds.9 mph94%29.83 "Hg15 mi
3:00 AM57 °FPassing clouds.7 mph94%29.83 "Hg15 mi
2:00 AM57 °FPassing clouds.8 mph94%29.82 "Hg15 mi
1:00 AM59 °FPassing clouds.6 mph88%29.83 "Hg15 mi
12:00 AM59 °FPassing clouds.8 mph88%29.83 "Hg15 mi
11:00 PM
Jul 25
61 °FPassing clouds.8 mph88%29.83 "Hg15 mi
10:00 PM63 °FPassing clouds.7 mph83%29.81 "Hg15 mi
9:00 PM66 °FPassing clouds.8 mph68%29.80 "Hg15 mi
8:00 PM70 °FPassing clouds.9 mph64%29.80 "Hg15 mi
7:00 PM73 °FPassing clouds.7 mph57%29.79 "Hg15 mi
6:00 PM75 °FPassing clouds.8 mph50%29.79 "Hg15 mi
5:00 PM75 °FPassing clouds.6 mph50%29.79 "Hg15 mi
4:00 PM75 °FPassing clouds.7 mph44%29.79 "Hg15 mi
3:00 PM73 °FPassing clouds.2 mph50%29.80 "Hg15 mi
2:00 PM73 °FPartly sunny.6 mph57%29.81 "Hg15 mi
1:00 PM70 °FPartly sunny.3 mph64%29.82 "Hg15 mi
12:00 PM68 °FPartly sunny.3 mph73%29.83 "Hg15 mi
11:00 AM64 °FPartly sunny.6 mph83%29.84 "Hg15 mi
10:00 AM63 °FPartly sunny.7 mph77%29.84 "Hg15 mi
9:00 AM61 °FPartly sunny.7 mph88%29.84 "Hg15 mi
8:00 AM59 °FPartly sunny.6 mph94%29.83 "Hg15 mi
Weather by CustomWeather, © 2014

See weather overviewHow to use our weather pages